Regional Weather Roundup
Issued by NWS

Home | Current Version | Previous Version | Graphics & Text | Print | Product List | Glossary Off
Versions: 1 2 3 4 5 6 7 8 9 10 11 12 13 14 15 16 17 18 19 20 21 22 23 24 25 26 27 28 29 30 31 32 33 34 35 36 37 38 39 40 41 42 43 44 45 46 47 48 49 50

000
ASUS43 KMKX 111300
RWRWI

WISCONSIN REGIONAL WEATHER ROUNDUP
NATIONAL WEATHER SERVICE MILWAUKEE/SULLIVAN WI
700 AM CST SUN DEC 11 2016

NOTE: "FAIR" INDICATES FEW OR NO CLOUDS BELOW 12,000 FEET WITH NO
SIGNIFICANT WEATHER AND/OR OBSTRUCTIONS TO VISIBILITY.

WIZ001-002-006>008-014>016-023>028-111400-
NORTHWEST WISCONSIN

CITY           SKY/WX    TMP DP  RH WIND       PRES   REMARKS
SUPERIOR ARPT  CLOUDY    13   6  73 E6        30.10F WCI   4
ASHLAND        CLOUDY    10   5  80 E5        30.11F WCI   2
HAYWARD        LGT SNOW  12   8  84 NE7       30.04S FOG     WCI   1
SIREN          LGT SNOW  13  10  87 CALM      30.04R
CUMBERLAND     LGT SNOW  14  10  85 NE6       30.00S WCI   5
RICE LAKE      LGT SNOW  15  11  86 E8        30.03R VSB 3/4 WCI   4
CHETEK         LGT SNOW  14  11  89 E6        30.01S WCI   5
LADYSMITH      LGT SNOW  14  10  86 E8        30.03F WCI   3
EAU CLAIRE     SNOW      17  14  88 E8        30.00F VSB 1/2 WCI   7
MENOMONIE      LGT SNOW  17  15  90 E8        30.00S WCI   7
NEW RICHMOND   LGT SNOW  15  12  87 E7        29.99R VSB 1   WCI   6
OSCEOLA        LGT SNOW  16  13  89 NE5       30.04R VSB 3/4 WCI   9
$$

WIZ003>005-009-010-017-018-111400-
NORTH CENTRAL WISCONSIN

CITY           SKY/WX    TMP DP  RH WIND       PRES   REMARKS
MANITOWISH WTR LGT SNOW   9   6  89 E5        30.03F WCI   1
ARBOR VITAE    LGT SNOW  11   8  85 CALM      30.03F
WOODRUFF       LGT SNOW  11   8  85 CALM      30.03F
RHINELANDER    LGT SNOW  11   8  88 E7        30.04F VSB 3/4 WCI   0
EAGLE RIVER    LGT SNOW   9   4  78 E7        30.04F WCI  -2
LAND O LAKES   FLURRIES   9   6  84 E3        30.05F
PHILLIPS       LGT SNOW  10   8  89 E5        30.02F WCI   2
TOMAHAWK       LGT SNOW  11   8  87 E3        30.03F
MEDFORD        LGT SNOW  12   9  85 E8G16     29.99F WCI   1
MERRILL        LGT SNOW  12   9  88 E7        30.05F WCI   2
$$

WIZ029-030-035-036-043>047-111400-
CENTRAL WISCONSIN

CITY           SKY/WX    TMP DP  RH WIND       PRES   REMARKS
WAUSAU         LGT SNOW  13  10  88 E9        30.02F FOG     WCI   1
MOSINEE        NOT AVBL
MARSHFIELD     LGT SNOW  15  11  83 E12       29.99F VSB 3/4 WCI   2
STEVENS POINT  LGT SNOW  13  11  91 E10       30.03F VSB 1   WCI   0
WAUPACA        LGT SNOW  19  16  86 CALM      30.07F VSB 1
WAUTOMA        LGT SNOW  20  17  88 E8        30.04F FOG     WCI  10
WISC RAPIDS    LGT SNOW  17  15  92 E10       30.02F VSB 1   WCI   5
CAMP DOUGLAS   LGT SNOW  19  18  93 E8        29.99F FOG     WCI   9
$$

WIZ011>013-019>022-031-037>040-048>050-111400-
NORTHEAST WISCONSIN

CITY           SKY/WX    TMP DP  RH WIND       PRES   REMARKS
ANTIGO         LGT SNOW  10   8  89 E7        30.04F WCI   0
SHAWANO        LGT SNOW  17  14  86 NE8       30.11F WCI   7
OCONTO         CLOUDY    16  14  90 N6        30.12F WCI   8
STURGEON BAY   LGT SNOW  20  17  88 NE9       30.11F FOG     WCI   9
GREEN BAY      LGT SNOW  21  19  92 NE13      30.09F FOG     WCI   9
MANITOWOC      NOT AVBL
APPLETON       LGT SNOW N/A N/A N/A NE8       30.05F VSB 1
CLINTONVILLE   LGT SNOW  18  14  86 NE8       30.09F WCI   7
OSHKOSH        LGT SNOW  22  19  89 E12       30.05F VSB 1   WCI  10
$$

WIZ032>034-041-042-053>061-111400-
SOUTHWEST WISCONSIN

CITY           SKY/WX    TMP DP  RH WIND       PRES   REMARKS
LA CROSSE      LGT SNOW  21  18  88 E7        29.96F FOG     WCI  12
SPARTA         LGT SNOW  20  18  91 E7        29.99R WCI  11
VIROQUA        CLOUDY    20  19  95 E13       29.92F WCI   7
BOSCOBEL       CLOUDY    24  21  88 N3        30.01R
PRAIRIE DU CHI CLOUDY    25  20  83 E8        29.95F WCI  16
PLATTEVILLE    CLOUDY    25  24  96 E10       29.95R WCI  15
$$

WIZ056-057-062-063-064-067-068-111400-
SOUTH CENTRAL WISCONSIN

CITY           SKY/WX    TMP DP  RH WIND       PRES   REMARKS
REEDSBURG      LGT SNOW  20  19  97 NE5       30.00S WCI  14
BARABOO/DELLS  LGT SNOW  20  19  94 E7        29.99F VSB 3/4 WCI  11
LONE ROCK      CLOUDY    23  20  88 E10       29.99S WCI  12
MINERAL POINT  CLOUDY    27  25  93 SE9       29.97R WCI  17
MADISON        LGT SNOW  23  20  88 SE6       30.01S FOG     WCI  16
MIDDLETON      CLOUDY    25  22  91 SE7       29.99F WCI  17
WATERTOWN      FLURRIES  24  23  98 SE9       29.99F WCI  14
MONROE         CLOUDY    25  23  93 SE9       29.97R WCI  15
JANESVILLE     LGT SNOW  27  25  93 SE9       29.99F WCI  17
$$

WIZ051-052-058>065-066-070>072-111400-
SOUTHEAST WISCONSIN

CITY           SKY/WX    TMP DP  RH WIND       PRES   REMARKS
MILWAUKEE      LGT SNOW  29  24  82 S12       30.03F WCI  19
WAUKESHA       LGT SNOW  25  19  80 SE6       30.03F WCI  18
MILWAUKEE/TIMM NOT AVBL
RACINE         LGT SNOW  29  26  89 S10       30.05F FOG     WCI  20
BURLINGTON     LGT SNOW  29  28  96 SE8       30.01F WCI  21
KENOSHA        LGT SNOW  28  24  85 S15       30.03F FOG     WCI  16
FOND DU LAC    LGT SNOW  23  18  81 E8        30.04F WCI  14
SHEBOYGAN      LGT SNOW  23  21  92 CALM      30.04F VSB 3/4
WEST BEND      LGT SNOW  27  27 100 CALM      30.04F
JUNEAU         LGT SNOW  22  20  93 E9        30.02F WCI  12
$$

LSZ147-162-111400-
LAKE SUPERIOR

STATION/POSITION TIME  TEMP    WIND        PRES    WAVE
                       AIR SEA DIR/SP/G            HT/PER
                 (UTC) (F)     (DEG/KT/KT) (MB)    (FT/S)
DEVILS ISLAND    1200   18     100/ 15/ 18 1021.5F
PORT WING        1240   12     100/  3/  7 1019.6F
SAXON HARBOR     1240   10     230/  2/  3 1020.0F
$$

LMZ867-665-643>646-111400-
LAKE MICHIGAN

STATION/POSITION TIME  TEMP    WIND        PRES    WAVE
                       AIR SEA DIR/SP/G            HT/PER
                 (UTC) (F)     (DEG/KT/KT) (MB)    (FT/S)
CHAMBERS ISLAND  1240   22      50/  6/  8 1020.3F
NORTHPORT PIER   1240   22      20/  3/  6 1021.3F
SISTER BAY       1205   19      40/  2/  5   N/A
ALGOMA LAKESHORE 1136          360/  7/  9   N/A
KEWAUNEE LAKESHO 1230   25      60/  5/  9 1019.1F
SHEBOYGAN LAKESH 1200   28     110/ 11/ 12 1019.4F
PORT WASHINGTON  1230   26     350/  2/  3 1019.0F
KENOSHA   LAKESH 1200   30     180/ 14/ 22 1018.3
$$

TC  - TEMPERATURE IN CELSIUS
VSB - VISIBILITY IN STATUTE MILES
WCI - WIND CHILL INDEX
HX  - HEAT INDEX




USA.gov is the U.S. government's official web portal to all federal, state and local government web resources and services.